User: anonymous   Login
Location: Chiroubles
(46.1812°N, 4.6660°E)
Time: 07:17:28
(UTC+00:00)
Language:

Cosmos 2360 Rocket - Orbit

View from above orbital plane
View from above orbital plane
View from above satellite
View from above satellite

Ground track
Ground track

The orbit data is extracted from the following two-line orbital elements,

1 25407U 98045B   20295.24090334 -.00000271 +00000-0 -11336-3 0  9996
2 25407 071.0132 353.2501 0006240 159.5462 200.5912 14.15830337148880
Epoch (UTC): 21 October 2020 05:46:54
Eccentricity: 0.0006240
inclination: 71.0132°
perigee height: 835 km
apogee height: 844 km
right ascension of ascending node: 353.2501°
argument of perigee: 159.5462°
revolutions per day: 14.15830337
mean anomaly at epoch: 200.5912°
orbit number at epoch: 14888

The dashed part of the orbit path shows where the satellite is in the earth's shadow,  

DLR